Location: ????????
(56.0167°N, 38.0333°E)
Time: 09:25:58
(UTC+00:00)

Cosmos 1933 - Pass Details

Date: 19 May 2025
Orbit: 516 x 524 km, 82.5° (Epoch: 12 June)

Event Time Altitude Azimuth Distance (km) Brightness Sun altitude
Rises 18:23:49 0° 192° (SSW) 2,645 6.5 -5.0°
Reaches altitude 10° 18:25:56 10° 194° (SSW) 1,760 5.6 -5.2°
Maximum altitude 18:29:49 83° 281° (W) 534 3.3 -5.6°
Drops below altitude 10° 18:33:42 10° 11° (N) 1,769 6.5 -5.9°
Sets 18:35:51 0° 12° (NNE) 2,661 7.4 -6.1°
